Regional Weather Roundup
Issued by NWS

Home | Current Version | Previous Version | Text Only | Print | Product List | Glossary On
Versions: 1 2 3 4 5 6 7 8 9 10 11 12 13 14 15 16 17 18 19 20 21 22 23 24 25 26 27 28 29 30 31 32 33 34 35 36 37 38 39 40 41 42 43 44 45 46 47 48 49 50
000
ASUS43 KLMK 281802
RWRKY
KENTUCKY REGIONAL WEATHER ROUNDUP
NATIONAL WEATHER SERVICE LOUISVILLE KY
200 PM EDT FRI AUG 28 2015

NOTE "FAIR" INDICATES FEW OR NO CLOUDS BELOW 12,000 FEET
WITH NO SIGNIFICANT WEATHER AND/OR OBSTRUCTIONS TO VISIBILITY.

KYZ001>023-026-027-061>063-070>075-281900-
WESTERN AND SOUTH CENTRAL KENTUCKY

CITY           SKY/WX    TMP DP  RH WIND       PRES   REMARKS
PADUCAH        SUNNY     83  58  42 NE3       30.10F
HENDERSON      PTSUNNY   79  57  47 E3        30.12F
OWENSBORO      MOSUNNY   80  59  48 SE7       30.14F
HOPKINSVILLE   SUNNY     84  63  50 VRB3      30.10F
BOWLING GREEN  MOSUNNY   84  64  50 SE3       30.12F
GLASGOW        NOT AVBL
$$

KYZ024-025-028>034-038-045-046-053-281900-
NORTH CENTRAL KENTUCKY

CITY           SKY/WX    TMP DP  RH WIND       PRES   REMARKS
LOUISVILLE/SDF PTSUNNY   81  58  45 VRB5      30.15F
LOUISVILLE/LOU MOSUNNY   80  59  48 VRB3      30.16F
FORT KNOX      SUNNY     79  60  53 VRB1      30.14F
$$

KYZ035>037-039>044-047>052-055>060-089>105-281900-
NORTHEAST KENTUCKY

CITY           SKY/WX    TMP DP  RH WIND       PRES   REMARKS
LEXINGTON      SUNNY     81  58  45 CALM      30.16F
COVINGTON      MOSUNNY   78  56  46 SE8       30.18F
FRANKFORT      SUNNY     80  57  45 VRB5      30.15F
$$

KYZ054-064>069-076>088-106>120-281900-
SOUTHEAST KENTUCKY

CITY           SKY/WX    TMP DP  RH WIND       PRES   REMARKS
JACKSON        SUNNY     79  63  57 CALM      30.19F
LONDON         PTSUNNY   82  61  48 SW7       30.18F
SOMERSET       NOT AVBL
MIDDLESBORO    MOSUNNY   82  63  53 S6        30.18S
MONTICELLO     CLEAR     82  65  56 CALM      30.18F
$$



USA.gov is the U.S. government's official web portal to all federal, state and local government web resources and services.